UAL403 KSLC-KDEN

Flight info

Callsign UAL403
Flight time N/A
Altitude 28000
Route KSLC RUGGD EKR DIR GRFLD DIR CHAPP KDEN
Aircraft A32N/M-SDE2E3FGHIJ1RWXYZ/LB1

Departure

Time 2026-05-06 02:55
Airport Salt Lake City International Airport (KSLC)

Arrival

Time N/A
Airport Denver International Airport (KDEN)
Time Latitude Longitude Altitude Speed Heading
2026-05-06 02:15 40.78940 -111.98834 4242 ft 0 kts 175°
2026-05-06 02:41 40.78958 -111.98836 4232 ft 3 kts 175°
2026-05-06 02:41 40.78975 -111.98838 4232 ft 2 kts 179°
2026-05-06 02:41 40.78991 -111.98832 4232 ft 2 kts 204°
2026-05-06 02:42 40.79005 -111.98822 4231 ft 2 kts 244°
2026-05-06 02:42 40.79007 -111.98822 4230 ft 1 kts 263°
2026-05-06 02:42 40.79005 -111.98843 4232 ft 3 kts 263°
2026-05-06 02:42 40.79003 -111.98862 4232 ft 2 kts 263°
2026-05-06 02:43 40.79001 -111.98879 4232 ft 2 kts 263°
2026-05-06 02:43 40.79001 -111.98887 4233 ft 0 kts 263°
2026-05-06 02:44 40.79001 -111.98907 4232 ft 5 kts 277°
2026-05-06 02:44 40.79006 -111.98945 4232 ft 8 kts 280°
2026-05-06 02:45 40.79018 -111.99045 4232 ft 13 kts 276°
2026-05-06 02:45 40.79018 -111.99172 4235 ft 15 kts 275°
2026-05-06 02:45 40.79050 -111.99270 4236 ft 0 kts 317°
2026-05-06 02:46 40.79052 -111.99272 4236 ft 4 kts 321°
2026-05-06 02:46 40.79098 -111.99401 4236 ft 18 kts 270°
2026-05-06 02:47 40.79100 -111.99493 4236 ft 5 kts 307°
2026-05-06 02:47 40.79142 -111.99518 4236 ft 7 kts 349°
2026-05-06 02:47 40.79199 -111.99528 4234 ft 9 kts 351°
2026-05-06 02:47 40.79272 -111.99538 4232 ft 12 kts 354°
2026-05-06 02:48 40.79360 -111.99551 4230 ft 13 kts 356°
2026-05-06 02:48 40.79457 -111.99557 4229 ft 14 kts 357°
2026-05-06 02:48 40.79558 -111.99566 4228 ft 15 kts 354°
2026-05-06 02:48 40.79661 -111.99584 4229 ft 14 kts 356°
2026-05-06 02:49 40.79755 -111.99592 4230 ft 13 kts 352°
2026-05-06 02:49 40.79841 -111.99608 4231 ft 12 kts 358°
2026-05-06 02:49 40.79923 -111.99610 4232 ft 11 kts 354°
2026-05-06 02:49 40.80013 -111.99622 4234 ft 16 kts 354°
2026-05-06 02:50 40.80114 -111.99638 4237 ft 14 kts 353°
2026-05-06 02:50 40.80190 -111.99650 4237 ft 14 kts 354°
2026-05-06 02:50 40.80289 -111.99662 4235 ft 15 kts 355°
2026-05-06 02:50 40.80395 -111.99673 4235 ft 15 kts 356°
2026-05-06 02:51 40.80497 -111.99679 4235 ft 15 kts 358°
2026-05-06 02:51 40.80592 -111.99689 4231 ft 5 kts 353°
2026-05-06 02:51 40.80593 -111.99689 4231 ft 0 kts 353°
2026-05-06 02:51 40.80605 -111.99691 4230 ft 4 kts 353°
2026-05-06 02:52 40.80681 -111.99704 4227 ft 20 kts 353°
2026-05-06 02:52 40.80769 -111.99752 4227 ft 12 kts 289°
2026-05-06 02:52 40.80771 -111.99771 4228 ft 0 kts 277°
2026-05-06 02:53 40.80769 -111.99833 4228 ft 4 kts 264°
2026-05-06 02:53 40.80769 -111.99834 4228 ft 0 kts 263°
2026-05-06 02:53 40.80766 -111.99860 4228 ft 11 kts 257°
2026-05-06 02:54 40.80717 -111.99917 4231 ft 9 kts 189°
2026-05-06 02:54 40.80557 -111.99912 4231 ft 60 kts 174°
2026-05-06 02:54 40.79829 -111.99817 4231 ft 150 kts 174°
2026-05-06 02:54 40.78596 -111.99745 4479 ft 193 kts 186°
2026-05-06 02:55 40.77436 -112.00538 5409 ft 193 kts 233°
2026-05-06 02:55 40.77141 -112.02282 6317 ft 214 kts 282°
2026-05-06 02:55 40.77899 -112.04088 7163 ft 238 kts 306°
2026-05-06 02:55 40.78935 -112.05922 8095 ft 258 kts 308°
2026-05-06 02:56 40.80044 -112.07854 9300 ft 270 kts 309°
2026-05-06 02:56 40.81165 -112.09889 10517 ft 277 kts 307°
2026-05-06 02:56 40.82248 -112.12034 11606 ft 288 kts 305°
2026-05-06 02:56 40.83333 -112.14377 12360 ft 310 kts 303°
2026-05-06 02:57 40.84434 -112.16918 13166 ft 329 kts 302°
2026-05-06 02:57 40.85645 -112.19567 13937 ft 345 kts 305°
2026-05-06 02:57 40.87034 -112.22194 14634 ft 359 kts 310°
2026-05-06 02:57 40.88819 -112.24619 15087 ft 379 kts 322°
2026-05-06 02:58 40.91168 -112.26437 15241 ft 406 kts 338°
2026-05-06 02:58 40.93936 -112.27280 16272 ft 400 kts 350°
2026-05-06 02:58 40.96616 -112.27815 18250 ft 378 kts 350°
2026-05-06 02:58 40.99136 -112.28313 19912 ft 356 kts 351°
2026-05-06 02:59 41.01523 -112.28782 21543 ft 337 kts 351°
2026-05-06 02:59 41.03781 -112.29223 23131 ft 319 kts 351°
2026-05-06 02:59 41.05955 -112.29649 23758 ft 303 kts 351°
2026-05-06 02:59 41.07956 -112.30028 23784 ft 287 kts 353°
2026-05-06 03:00 41.09982 -112.29933 23047 ft 299 kts
2026-05-06 03:00 41.11969 -112.28973 22459 ft 308 kts 25°
2026-05-06 03:00 41.13649 -112.27261 22371 ft 302 kts 38°
2026-05-06 03:00 41.15122 -112.25397 22245 ft 291 kts 38°
2026-05-06 03:01 41.16398 -112.23301 21910 ft 297 kts 54°
2026-05-06 03:01 41.17084 -112.20683 21701 ft 307 kts 77°
2026-05-06 03:01 41.16952 -112.17754 22280 ft 331 kts 98°
2026-05-06 03:01 41.16159 -112.14801 22891 ft 348 kts 109°
2026-05-06 03:02 41.15032 -112.11804 23004 ft 378 kts 112°
2026-05-06 03:02 41.13816 -112.08747 22917 ft 371 kts 112°
2026-05-06 03:02 41.12622 -112.05765 22807 ft 360 kts 112°
2026-05-06 03:02 41.11461 -112.02877 22653 ft 349 kts 112°
2026-05-06 03:03 41.10271 -112.00111 22492 ft 341 kts 114°
2026-05-06 03:03 41.09321 -111.97320 22506 ft 328 kts 106°
2026-05-06 03:03 41.08470 -111.94569 22834 ft 313 kts 105°
2026-05-06 03:03 41.07666 -111.91967 22891 ft 297 kts 105°
2026-05-06 03:04 41.06894 -111.89491 22896 ft 285 kts 105°
2026-05-06 03:04 41.06143 -111.87099 22899 ft 279 kts 105°
2026-05-06 03:04 41.05396 -111.84728 22893 ft 279 kts 105°
2026-05-06 03:04 41.04646 -111.82365 23235 ft 279 kts 105°
2026-05-06 03:05 41.03889 -111.79986 23818 ft 281 kts 105°
2026-05-06 03:05 41.03123 -111.77589 24348 ft 285 kts 105°
2026-05-06 03:05 41.02341 -111.75149 24818 ft 290 kts 105°
2026-05-06 03:05 41.01548 -111.72679 25341 ft 293 kts 104°
2026-05-06 03:06 41.00756 -111.70223 25871 ft 295 kts 104°
2026-05-06 03:06 40.99946 -111.67709 26340 ft 301 kts 104°
2026-05-06 03:06 40.99110 -111.65100 26608 ft 314 kts 104°
2026-05-06 03:06 40.98236 -111.62376 26850 ft 329 kts 105°
2026-05-06 03:07 40.97319 -111.59530 27097 ft 343 kts 105°
2026-05-06 03:07 40.96360 -111.56563 27338 ft 358 kts 105°
2026-05-06 03:07 40.95362 -111.53480 27605 ft 371 kts 106°
2026-05-06 03:07 40.94325 -111.50287 27833 ft 385 kts 106°
2026-05-06 03:08 40.93252 -111.46992 27858 ft 392 kts 106°
2026-05-06 03:08 40.92169 -111.43682 27853 ft 392 kts 107°
2026-05-06 03:08 40.91182 -111.40346 27868 ft 387 kts 99°
2026-05-06 03:08 40.90591 -111.36899 27868 ft 381 kts 92°
2026-05-06 03:09 40.90164 -111.33450 27869 ft 380 kts 91°
2026-05-06 03:09 40.89769 -111.30037 27867 ft 380 kts 91°
2026-05-06 03:09 40.89366 -111.26547 27881 ft 380 kts 91°
2026-05-06 03:09 40.88963 -111.23095 27880 ft 380 kts 91°
2026-05-06 03:10 40.88561 -111.19682 27873 ft 380 kts 91°
2026-05-06 03:10 40.88152 -111.16228 27879 ft 380 kts 91°
2026-05-06 03:10 40.87741 -111.12775 27913 ft 381 kts 91°
2026-05-06 03:10 40.87328 -111.09313 27895 ft 383 kts 91°
2026-05-06 03:11 40.86912 -111.05834 27896 ft 384 kts 91°
2026-05-06 03:11 40.86493 -111.02348 27894 ft 384 kts 91°
2026-05-06 03:11 40.86072 -110.98861 27904 ft 384 kts 91°
2026-05-06 03:11 40.85651 -110.95374 27905 ft 385 kts 91°
2026-05-06 03:12 40.85228 -110.91887 27900 ft 385 kts 91°
2026-05-06 03:12 40.84804 -110.88399 27901 ft 385 kts 91°
2026-05-06 03:12 40.84379 -110.84911 27909 ft 385 kts 91°
2026-05-06 03:12 40.83953 -110.81422 27913 ft 385 kts 91°
2026-05-06 03:13 40.83527 -110.77932 27914 ft 386 kts 91°
2026-05-06 03:13 40.83095 -110.74431 27913 ft 387 kts 91°
2026-05-06 03:13 40.82660 -110.70922 27909 ft 387 kts 91°
2026-05-06 03:13 40.82223 -110.67403 27906 ft 388 kts 91°
2026-05-06 03:14 40.81793 -110.63937 27913 ft 388 kts 91°
2026-05-06 03:14 40.81356 -110.60422 27899 ft 387 kts 91°
2026-05-06 03:14 40.80919 -110.56911 27903 ft 388 kts 91°
2026-05-06 03:14 40.80481 -110.53400 27897 ft 388 kts 91°
2026-05-06 03:15 40.80041 -110.49889 27904 ft 388 kts 91°
2026-05-06 03:15 40.79601 -110.46370 27919 ft 388 kts 91°
2026-05-06 03:15 40.79159 -110.42856 27897 ft 389 kts 92°
2026-05-06 03:15 40.78715 -110.39334 27899 ft 389 kts 92°
2026-05-06 03:16 40.78270 -110.35819 27899 ft 389 kts 92°
2026-05-06 03:16 40.77825 -110.32297 27873 ft 389 kts 92°
2026-05-06 03:16 40.77378 -110.28774 27881 ft 388 kts 92°
2026-05-06 03:16 40.76931 -110.25267 27877 ft 387 kts 92°
2026-05-06 03:17 40.76488 -110.21810 27884 ft 387 kts 92°
2026-05-06 03:17 40.76041 -110.18306 27870 ft 388 kts 92°
2026-05-06 03:17 40.75593 -110.14802 27868 ft 387 kts 92°
2026-05-06 03:17 40.75143 -110.11296 27878 ft 388 kts 93°
2026-05-06 03:18 40.74692 -110.07776 27869 ft 390 kts 93°
2026-05-06 03:18 40.74282 -110.04244 27863 ft 389 kts 90°
2026-05-06 03:18 40.74013 -110.00697 27863 ft 387 kts 88°
2026-05-06 03:18 40.73781 -109.97159 27863 ft 387 kts 88°
2026-05-06 03:19 40.73552 -109.93620 27862 ft 387 kts 88°
2026-05-06 03:19 40.73318 -109.90074 27850 ft 387 kts 88°
2026-05-06 03:19 40.73083 -109.86528 27847 ft 387 kts 88°
2026-05-06 03:19 40.72846 -109.82990 27847 ft 387 kts 88°
2026-05-06 03:20 40.72367 -109.75899 27853 ft 389 kts 88°
2026-05-06 03:20 40.72125 -109.72342 27849 ft 390 kts 88°
2026-05-06 03:20 40.71879 -109.68777 27848 ft 391 kts 88°
2026-05-06 03:21 40.71632 -109.65204 27864 ft 391 kts 88°
2026-05-06 03:21 40.71384 -109.61645 27869 ft 391 kts 88°
2026-05-06 03:21 40.71135 -109.58079 27844 ft 391 kts 89°
2026-05-06 03:21 40.70889 -109.54555 27870 ft 390 kts 89°
2026-05-06 03:22 40.70638 -109.50987 27876 ft 390 kts 89°
2026-05-06 03:22 40.70468 -109.48589 27876 ft 390 kts 89°